Time,TemperatureF,DewpointF,PressureIn,WindDirection,WindDirectionDegrees,WindSpeedMPH,WindSpeedGustMPH,Humidity,HourlyPrecipIn,Conditions,Clouds,dailyrainin,SolarRadiationWatts/m^2,SoftwareType,DateUTC
2013-02-19 00:02:00,48.7,38.2,29.96,SW,236,7.7,11.5,67,0.00,OVC,,0.00,0.0,WeatherDisplay:10.37,2013-02-19 08:02:00,
2013-02-19 00:07:00,48.7,38.6,29.96,NW,305,3.3,4.6,68,0.00,OVC,,0.00,0.0,WeatherDisplay:10.37,2013-02-19 08:07:00,
2013-02-19 00:12:00,48.7,39.4,29.96,WSW,244,4.6,9.2,70,0.00,OVC,,0.00,0.0,WeatherDisplay:10.37,2013-02-19 08:12:00,
2013-02-19 00:17:00,48.7,40.1,29.95,West,271,3.8,5.8,72,0.00,OVC,,0.00,0.0,WeatherDisplay:10.37,2013-02-19 08:17:00,
2013-02-19 00:22:00,48.6,40.3,29.95,WNW,291,6.8,11.5,73,0.00,OVC,,0.00,0.0,WeatherDisplay:10.37,2013-02-19 08:22:00,
2013-02-19 00:27:00,48.5,40.2,29.95,WNW,294,5.9,10.4,73,0.00,OVC,,0.00,0.0,WeatherDisplay:10.37,2013-02-19 08:27:00,
2013-02-19 00:32:00,48.5,39.9,29.95,West,264,3.7,9.2,72,0.00,OVC,,0.00,0.0,WeatherDisplay:10.37,2013-02-19 08:32:00,
2013-02-19 00:37:00,48.4,39.4,29.95,WSW,247,5.2,11.5,71,0.00,OVC,,0.00,0.0,WeatherDisplay:10.37,2013-02-19 08:37:00,
2013-02-19 00:42:00,48.3,39.0,29.95,WNW,288,4.8,5.8,70,0.00,OVC,,0.00,0.0,WeatherDisplay:10.37,2013-02-19 08:42:00,
2013-02-19 00:47:00,48.3,39.3,29.95,West,271,7.3,12.0,71,0.00,OVC,,0.00,0.0,WeatherDisplay:10.37,2013-02-19 08:47:00,
2013-02-19 00:52:00,48.3,39.7,29.95,West,277,3.7,8.1,72,0.00,OVC,,0.00,0.0,WeatherDisplay:10.37,2013-02-19 08:52:00,
2013-02-19 00:57:00,48.4,40.1,29.95,WNW,300,5.1,10.4,73,0.00,OVC,,0.00,0.0,WeatherDisplay:10.37,2013-02-19 08:57:00,
2013-02-19 01:02:00,48.5,40.6,29.95,WNW,298,5.6,9.2,74,0.00,OVC,,0.00,0.0,WeatherDisplay:10.37,2013-02-19 09:02:00,
2013-02-19 01:07:00,48.5,40.9,29.95,WNW,294,6.3,10.4,75,0.00,OVC,,0.00,0.0,WeatherDisplay:10.37,2013-02-19 09:07:00,
2013-02-19 01:12:00,48.4,40.8,29.95,WNW,283,4.8,10.4,75,0.00,OVC,,0.00,0.0,WeatherDisplay:10.37,2013-02-19 09:12:00,
2013-02-19 01:17:00,48.3,41.1,29.95,West,277,5.1,11.5,76,0.00,OVC,,0.00,0.0,WeatherDisplay:10.37,2013-02-19 09:17:00,
2013-02-19 01:22:00,48.2,41.3,29.95,WNW,283,11.6,16.1,77,0.00,OVC,,0.00,0.0,WeatherDisplay:10.37,2013-02-19 09:22:00,
2013-02-19 01:27:00,47.7,41.8,29.95,North,10,5.7,11.5,80,0.00,OVC,,0.00,0.0,WeatherDisplay:10.37,2013-02-19 09:27:00,
2013-02-19 01:32:00,47.2,41.3,29.95,WNW,293,4.4,6.9,80,0.00,OVC,,0.00,0.0,WeatherDisplay:10.37,2013-02-19 09:32:00,
2013-02-19 01:37:00,47.1,41.2,29.95,WNW,293,4.5,5.8,80,0.00,OVC,,0.00,0.0,WeatherDisplay:10.37,2013-02-19 09:37:00,
2013-02-19 01:43:00,47.1,41.2,29.95,WSW,255,6.2,9.2,80,0.00,OVC,,0.00,0.0,WeatherDisplay:10.37,2013-02-19 09:43:00,
2013-02-19 01:48:00,47.2,41.0,29.95,WNW,285,6.1,10.4,79,0.00,OVC,,0.00,0.0,WeatherDisplay:10.37,2013-02-19 09:48:00,
2013-02-19 01:53:00,47.3,41.1,29.94,West,264,3.1,10.4,79,0.00,OVC,,0.00,0.0,WeatherDisplay:10.37,2013-02-19 09:53:00,
2013-02-19 01:58:00,47.4,40.9,29.94,SW,228,7.0,10.0,78,0.00,OVC,,0.00,0.0,WeatherDisplay:10.37,2013-02-19 09:58:00,
2013-02-19 02:03:00,47.5,41.0,29.94,West,279,0.0,5.8,78,0.00,OVC,,0.00,0.0,WeatherDisplay:10.37,2013-02-19 10:03:00,
2013-02-19 02:08:00,47.6,41.1,29.94,WSW,239,3.8,6.9,78,0.00,OVC,,0.00,0.0,WeatherDisplay:10.37,2013-02-19 10:08:00,
2013-02-19 02:13:00,47.7,41.2,29.94,WSW,252,3.4,5.8,78,0.00,OVC,,0.00,0.0,WeatherDisplay:10.37,2013-02-19 10:13:00,
2013-02-19 02:18:00,47.6,41.4,29.93,WSW,258,2.8,4.6,79,0.00,OVC,,0.00,0.0,WeatherDisplay:10.37,2013-02-19 10:18:00,
2013-02-19 02:23:00,47.5,41.3,29.94,WNW,283,3.0,4.6,79,0.00,OVC,,0.00,0.0,WeatherDisplay:10.37,2013-02-19 10:23:00,
2013-02-19 02:28:00,47.4,41.5,29.94,West,264,2.4,5.8,80,0.00,OVC,,0.00,0.0,WeatherDisplay:10.37,2013-02-19 10:28:00,
2013-02-19 02:33:00,47.3,41.4,29.93,West,274,4.0,5.0,80,0.00,OVC,,0.00,0.0,WeatherDisplay:10.37,2013-02-19 10:33:00,
2013-02-19 02:38:00,47.3,41.8,29.93,West,269,2.8,9.2,81,0.00,OVC,,0.00,0.0,WeatherDisplay:10.37,2013-02-19 10:38:00,
2013-02-19 02:43:00,47.3,41.8,29.92,WNW,294,2.1,3.5,81,0.00,OVC,,0.00,0.0,WeatherDisplay:10.37,2013-02-19 10:43:00,
2013-02-19 02:48:00,47.3,41.8,29.92,West,271,2.2,4.0,81,0.00,OVC,,0.00,0.0,WeatherDisplay:10.37,2013-02-19 10:48:00,
2013-02-19 02:53:00,47.3,42.1,29.92,WNW,302,3.2,4.0,82,0.00,OVC,,0.00,0.0,WeatherDisplay:10.37,2013-02-19 10:53:00,
2013-02-19 02:58:00,47.3,42.1,29.92,West,277,2.7,3.5,82,0.00,OVC,,0.00,0.0,WeatherDisplay:10.37,2013-02-19 10:58:00,
2013-02-19 03:03:00,47.4,42.2,29.92,West,260,4.0,5.0,82,0.00,OVC,,0.00,0.0,WeatherDisplay:10.37,2013-02-19 11:03:00,
2013-02-19 03:08:00,47.3,42.1,29.92,WNW,285,1.7,5.0,82,0.00,OVC,,0.00,0.0,WeatherDisplay:10.37,2013-02-19 11:08:00,
2013-02-19 03:13:00,47.3,41.8,29.92,WNW,283,3.6,6.9,81,0.00,OVC,,0.00,0.0,WeatherDisplay:10.37,2013-02-19 11:13:00,
2013-02-19 03:18:00,47.4,41.9,29.91,WNW,302,2.9,5.8,81,0.00,OVC,,0.00,0.0,WeatherDisplay:10.37,2013-02-19 11:18:00,
2013-02-19 03:23:00,47.4,41.9,29.91,West,269,2.0,4.6,81,0.00,OVC,,0.00,0.0,WeatherDisplay:10.37,2013-02-19 11:23:00,
2013-02-19 03:28:00,47.3,41.8,29.91,West,271,1.4,3.5,81,0.00,OVC,,0.00,0.0,WeatherDisplay:10.37,2013-02-19 11:28:00,
2013-02-19 03:33:00,47.3,41.8,29.91,West,273,0.7,2.3,81,0.00,OVC,,0.00,0.0,WeatherDisplay:10.37,2013-02-19 11:33:00,
2013-02-19 03:38:00,47.3,41.8,29.91,West,273,1.7,3.5,81,0.00,OVC,,0.00,0.0,WeatherDisplay:10.37,2013-02-19 11:38:00,
2013-02-19 03:43:00,47.2,41.7,29.91,West,273,0.0,0.0,81,0.00,OVC,,0.00,0.0,WeatherDisplay:10.37,2013-02-19 11:43:00,
2013-02-19 03:48:00,47.2,41.7,29.91,West,273,1.7,3.5,81,0.00,OVC,,0.00,0.0,WeatherDisplay:10.37,2013-02-19 11:48:00,
2013-02-19 03:53:00,47.1,41.6,29.91,West,271,0.5,2.3,81,0.00,OVC,,0.00,0.0,WeatherDisplay:10.37,2013-02-19 11:53:00,
2013-02-19 03:58:00,47.0,41.8,29.91,West,273,0.0,0.0,82,0.00,OVC,,0.00,0.0,WeatherDisplay:10.37,2013-02-19 11:58:00,
2013-02-19 04:03:00,47.0,41.8,29.90,West,262,0.0,0.0,82,0.00,OVC,,0.00,0.0,WeatherDisplay:10.37,2013-02-19 12:03:00,
2013-02-19 04:08:00,47.0,42.1,29.90,WSW,256,2.1,3.5,83,0.00,OVC,,0.00,0.0,WeatherDisplay:10.37,2013-02-19 12:08:00,
2013-02-19 04:13:00,47.0,42.1,29.90,WSW,252,0.4,2.3,83,0.00,OVC,,0.00,0.0,WeatherDisplay:10.37,2013-02-19 12:13:00,
2013-02-19 04:18:00,47.1,42.2,29.90,WSW,238,3.2,4.6,83,0.00,OVC,,0.00,0.0,WeatherDisplay:10.37,2013-02-19 12:18:00,
2013-02-19 04:23:00,47.2,42.3,29.90,WSW,238,1.8,3.5,83,0.00,OVC,,0.00,0.0,WeatherDisplay:10.37,2013-02-19 12:23:00,
2013-02-19 04:28:00,47.2,42.3,29.90,WSW,238,0.7,3.5,83,0.00,OVC,,0.00,0.0,WeatherDisplay:10.37,2013-02-19 12:28:00,
2013-02-19 04:33:00,47.3,42.1,29.90,WSW,252,4.4,5.8,82,0.00,OVC,,0.00,0.0,WeatherDisplay:10.37,2013-02-19 12:33:00,
2013-02-19 04:38:00,47.3,42.1,29.90,SSW,205,7.7,10.4,82,0.00,OVC,,0.00,0.0,WeatherDisplay:10.37,2013-02-19 12:38:00,
2013-02-19 04:43:00,47.4,42.2,29.90,WSW,255,2.8,3.5,82,0.00,OVC,,0.00,0.0,WeatherDisplay:10.37,2013-02-19 12:43:00,
2013-02-19 04:48:00,47.5,42.0,29.90,SW,235,2.1,5.0,81,0.00,OVC,,0.00,0.0,WeatherDisplay:10.37,2013-02-19 12:48:00,
2013-02-19 04:53:00,47.6,42.1,29.90,SW,225,4.4,9.2,81,0.00,OVC,,0.00,0.0,WeatherDisplay:10.37,2013-02-19 12:53:00,
2013-02-19 04:58:00,47.7,42.5,29.89,WSW,252,5.8,9.2,82,0.00,OVC,,0.00,0.0,WeatherDisplay:10.37,2013-02-19 12:58:00,
2013-02-19 05:03:00,47.8,42.6,29.90,SSW,208,4.5,11.5,82,0.00,OVC,,0.00,0.0,WeatherDisplay:10.37,2013-02-19 13:03:00,
2013-02-19 05:08:00,47.9,42.7,29.89,SW,225,2.5,6.0,82,0.00,OVC,,0.00,0.0,WeatherDisplay:10.37,2013-02-19 13:08:00,
2013-02-19 05:13:00,48.0,42.8,29.89,SW,227,5.3,6.9,82,0.00,OVC,,0.00,0.0,WeatherDisplay:10.37,2013-02-19 13:13:00,
2013-02-19 05:18:00,48.1,42.9,29.89,SW,220,2.7,4.6,82,0.00,OVC,,0.00,0.0,WeatherDisplay:10.37,2013-02-19 13:18:00,
2013-02-19 05:23:00,48.2,42.6,29.89,WSW,237,3.7,6.9,81,0.00,OVC,,0.00,0.0,WeatherDisplay:10.37,2013-02-19 13:23:00,
2013-02-19 05:28:00,48.4,42.8,29.89,SW,229,7.1,10.4,81,0.00,OVC,,0.00,0.0,WeatherDisplay:10.37,2013-02-19 13:28:00,
2013-02-19 05:33:00,48.4,43.5,29.89,WSW,250,1.0,4.6,83,0.02,RA,,0.02,0.0,WeatherDisplay:10.37,2013-02-19 13:33:00,
2013-02-19 05:38:00,48.1,43.8,29.89,WSW,242,8.8,11.5,85,0.03,RA,,0.03,0.0,WeatherDisplay:10.37,2013-02-19 13:38:00,
2013-02-19 05:43:00,47.8,44.1,29.89,SSW,204,6.6,10.4,87,0.04,RA,,0.04,0.0,WeatherDisplay:10.37,2013-02-19 13:43:00,
2013-02-19 05:48:00,47.6,43.9,29.89,WSW,254,5.0,10.0,87,0.04,RA,,0.04,0.0,WeatherDisplay:10.37,2013-02-19 13:48:00,
2013-02-19 05:53:00,47.4,44.0,29.89,WSW,239,5.1,9.2,88,0.04,OVC,,0.04,0.0,WeatherDisplay:10.37,2013-02-19 13:53:00,
2013-02-19 05:58:00,47.3,43.9,29.89,WSW,254,7.6,11.5,88,0.04,OVC,,0.04,0.0,WeatherDisplay:10.37,2013-02-19 13:58:00,
2013-02-19 06:03:00,47.2,43.8,29.88,WSW,237,6.3,10.4,88,0.04,OVC,,0.04,0.0,WeatherDisplay:10.37,2013-02-19 14:03:00,
2013-02-19 06:08:00,47.2,43.8,29.88,WSW,251,3.3,10.4,88,0.04,OVC,,0.04,0.0,WeatherDisplay:10.37,2013-02-19 14:08:00,
2013-02-19 06:13:00,47.1,43.7,29.88,WSW,245,2.9,3.5,88,0.04,OVC,,0.04,0.0,WeatherDisplay:10.37,2013-02-19 14:13:00,
2013-02-19 06:18:00,47.0,43.6,29.87,WSW,239,2.8,5.8,88,0.04,OVC,,0.04,0.0,WeatherDisplay:10.37,2013-02-19 14:18:00,
2013-02-19 06:23:00,47.0,43.6,29.87,SW,225,6.3,10.4,88,0.04,OVC,,0.04,0.0,WeatherDisplay:10.37,2013-02-19 14:23:00,
2013-02-19 06:28:00,47.0,43.6,29.86,South,189,4.2,6.9,88,0.04,OVC,,0.04,0.0,WeatherDisplay:10.37,2013-02-19 14:28:00,
2013-02-19 06:33:00,47.0,43.6,29.86,SW,218,6.5,8.1,88,0.02,OVC,,0.04,0.0,WeatherDisplay:10.37,2013-02-19 14:33:00,
2013-02-19 06:38:00,47.0,43.9,29.86,SSW,208,5.5,9.0,89,0.01,OVC,,0.04,0.0,WeatherDisplay:10.37,2013-02-19 14:38:00,
2013-02-19 06:43:00,47.2,44.1,29.86,SW,230,4.5,12.7,89,0.00,OVC,,0.04,0.0,WeatherDisplay:10.37,2013-02-19 14:43:00,
2013-02-19 06:48:00,47.4,44.3,29.86,SW,234,4.2,5.8,89,0.00,OVC,,0.04,0.0,WeatherDisplay:10.37,2013-02-19 14:48:00,
2013-02-19 06:53:00,47.7,44.6,29.86,SW,229,7.4,11.5,89,0.00,OVC,,0.04,0.0,WeatherDisplay:10.37,2013-02-19 14:53:00,
2013-02-19 06:58:00,47.8,44.4,29.85,SW,231,6.0,17.3,88,0.00,OVC,,0.04,0.0,WeatherDisplay:10.37,2013-02-19 14:58:00,
2013-02-19 07:04:00,48.0,44.6,29.85,SW,220,6.8,12.7,88,0.00,OVC,,0.04,0.0,WeatherDisplay:10.37,2013-02-19 15:04:00,
2013-02-19 07:09:00,48.2,44.8,29.85,South,189,7.5,11.5,88,0.00,OVC,,0.04,0.0,WeatherDisplay:10.37,2013-02-19 15:09:00,
2013-02-19 07:14:00,48.2,44.5,29.85,WSW,241,7.4,13.8,87,0.00,OVC,,0.04,7.0,WeatherDisplay:10.37,2013-02-19 15:14:00,
2013-02-19 07:19:00,48.2,44.5,29.85,SW,221,6.2,11.5,87,0.00,OVC,,0.04,11.0,WeatherDisplay:10.37,2013-02-19 15:19:00,
2013-02-19 07:24:00,48.2,44.5,29.85,South,190,9.2,13.8,87,0.00,OVC,,0.04,14.0,WeatherDisplay:10.37,2013-02-19 15:24:00,
2013-02-19 07:29:00,48.3,44.6,29.86,SW,223,5.1,11.5,87,0.00,OVC,,0.04,18.0,WeatherDisplay:10.37,2013-02-19 15:29:00,
2013-02-19 07:34:00,48.2,45.4,29.86,South,190,8.8,14.0,90,0.00,OVC,,0.04,23.0,WeatherDisplay:10.37,2013-02-19 15:34:00,
2013-02-19 07:39:00,48.1,44.1,29.86,SSW,192,9.2,16.1,86,0.00,OVC,,0.04,28.0,WeatherDisplay:10.37,2013-02-19 15:39:00,
2013-02-19 07:44:00,48.0,43.7,29.85,SW,229,4.5,13.8,85,0.00,OVC,,0.04,32.0,WeatherDisplay:10.37,2013-02-19 15:44:00,
2013-02-19 07:49:00,48.1,43.8,29.84,SW,229,5.1,11.5,85,0.00,CLR,,0.04,40.0,WeatherDisplay:10.37,2013-02-19 15:49:00,
2013-02-19 07:54:00,48.0,43.1,29.83,SSW,209,4.5,11.0,83,0.00,CLR,,0.04,46.0,WeatherDisplay:10.37,2013-02-19 15:54:00,
2013-02-19 07:59:00,48.1,43.2,29.84,SW,214,5.9,11.5,83,0.00,CLR,,0.04,49.0,WeatherDisplay:10.37,2013-02-19 15:59:00,
2013-02-19 08:04:00,48.1,43.2,29.84,SW,223,5.0,11.0,83,0.00,CLR,,0.04,56.0,WeatherDisplay:10.37,2013-02-19 16:04:00,
2013-02-19 08:09:00,48.3,43.7,29.84,SW,232,4.5,9.2,84,0.00,CLR,,0.04,63.0,WeatherDisplay:10.37,2013-02-19 16:09:00,
2013-02-19 08:14:00,48.4,43.8,29.84,WSW,248,7.8,11.5,84,0.00,CLR,,0.04,56.0,WeatherDisplay:10.37,2013-02-19 16:14:00,
2013-02-19 08:19:00,48.6,44.0,29.83,SSW,210,7.4,12.0,84,0.00,CLR,,0.04,49.0,WeatherDisplay:10.37,2013-02-19 16:19:00,
2013-02-19 08:24:00,48.8,44.2,29.83,South,190,6.5,11.5,84,0.00,SCT,,0.04,42.0,WeatherDisplay:10.37,2013-02-19 16:24:00,
2013-02-19 08:29:00,48.9,44.3,29.83,South,188,6.1,19.6,84,0.00,SCT,,0.04,69.0,WeatherDisplay:10.37,2013-02-19 16:29:00,
2013-02-19 08:34:00,49.0,44.4,29.83,SSE,160,10.0,13.8,84,0.00,SCT,,0.04,58.0,WeatherDisplay:10.37,2013-02-19 16:34:00,
2013-02-19 08:39:00,48.9,44.6,29.83,SE,133,10.1,12.7,85,0.00,SCT,,0.04,35.0,WeatherDisplay:10.37,2013-02-19 16:39:00,
2013-02-19 08:44:00,48.6,44.3,29.82,North,10,10.6,19.6,85,0.00,BKN,,0.05,56.0,WeatherDisplay:10.37,2013-02-19 16:44:00,
2013-02-19 08:49:00,48.2,44.2,29.82,SSE,158,7.5,17.3,86,0.02,RA,,0.06,39.0,WeatherDisplay:10.37,2013-02-19 16:49:00,
2013-02-19 08:54:00,48.0,44.3,29.82,South,176,6.7,12.7,87,0.04,RA,,0.08,30.0,WeatherDisplay:10.37,2013-02-19 16:54:00,
2013-02-19 08:59:00,47.8,44.1,29.83,SW,217,15.5,25.3,87,0.05,RA,,0.09,40.0,WeatherDisplay:10.37,2013-02-19 16:59:00,
2013-02-19 09:04:00,47.7,44.3,29.82,WSW,242,10.3,12.7,88,0.06,RA,,0.10,60.0,WeatherDisplay:10.37,2013-02-19 17:04:00,
2013-02-19 09:09:00,47.6,44.5,29.83,SSW,208,6.1,11.5,89,0.08,RA,,0.12,35.0,WeatherDisplay:10.37,2013-02-19 17:09:00,
2013-02-19 09:14:00,47.4,44.3,29.83,SSW,196,12.6,20.7,89,0.08,RA,,0.12,81.0,WeatherDisplay:10.37,2013-02-19 17:14:00,
2013-02-19 09:19:00,47.2,44.1,29.82,WSW,244,11.0,18.4,89,0.09,RA,,0.13,51.0,WeatherDisplay:10.37,2013-02-19 17:19:00,
2013-02-19 09:24:00,47.1,44.3,29.82,WSW,255,7.4,12.7,90,0.09,RA,,0.13,76.0,WeatherDisplay:10.37,2013-02-19 17:24:00,
2013-02-19 09:29:00,47.1,44.3,29.82,WNW,290,6.9,10.4,90,0.09,BKN,,0.13,128.0,WeatherDisplay:10.37,2013-02-19 17:29:00,
2013-02-19 09:34:00,47.0,44.2,29.82,WNW,292,3.4,5.8,90,0.09,BKN,,0.13,44.0,WeatherDisplay:10.37,2013-02-19 17:34:00,
2013-02-19 09:39:00,46.9,44.1,29.82,WNW,289,5.2,11.5,90,0.10,RA,,0.14,19.0,WeatherDisplay:10.37,2013-02-19 17:39:00,
2013-02-19 09:44:00,46.3,43.2,29.82,WNW,292,7.9,16.1,89,0.12,RA,,0.17,23.0,WeatherDisplay:10.37,2013-02-19 17:44:00,
2013-02-19 09:49:00,45.7,42.6,29.82,NW,313,2.9,9.2,89,0.16,RA,,0.22,56.0,WeatherDisplay:10.37,2013-02-19 17:49:00,
2013-02-19 09:54:00,45.5,42.7,29.82,WSW,258,4.6,6.9,90,0.15,RA,,0.23,118.0,WeatherDisplay:10.37,2013-02-19 17:54:00,
2013-02-19 09:59:00,45.4,42.9,29.82,West,263,5.3,11.5,91,0.15,RA,,0.24,74.0,WeatherDisplay:10.37,2013-02-19 17:59:00,
2013-02-19 10:04:00,45.4,42.6,29.82,WSW,252,11.6,16.1,90,0.16,RA,,0.26,35.0,WeatherDisplay:10.37,2013-02-19 18:04:00,
2013-02-19 10:09:00,45.1,42.3,29.82,WNW,294,6.6,10.4,90,0.15,RA,,0.27,25.0,WeatherDisplay:10.37,2013-02-19 18:09:00,
2013-02-19 10:14:00,45.0,42.2,29.82,WNW,299,4.1,6.9,90,0.16,RA,,0.28,37.0,WeatherDisplay:10.37,2013-02-19 18:14:00,
2013-02-19 10:19:00,44.9,42.1,29.82,WNW,287,4.9,10.4,90,0.16,RA,,0.29,44.0,WeatherDisplay:10.37,2013-02-19 18:19:00,
2013-02-19 10:24:00,44.7,41.9,29.82,WNW,285,10.0,12.7,90,0.17,RA,,0.30,37.0,WeatherDisplay:10.37,2013-02-19 18:24:00,
2013-02-19 10:29:00,44.7,41.9,29.82,WNW,287,7.5,11.5,90,0.18,RA,,0.31,39.0,WeatherDisplay:10.37,2013-02-19 18:29:00,
2013-02-19 10:34:00,44.8,41.8,29.82,West,279,7.2,10.4,89,0.19,RA,,0.32,46.0,WeatherDisplay:10.37,2013-02-19 18:34:00,
2013-02-19 10:39:00,44.8,42.0,29.82,WSW,249,5.0,9.2,90,0.20,RA,,0.34,49.0,WeatherDisplay:10.37,2013-02-19 18:39:00,
2013-02-19 10:44:00,44.8,42.0,29.82,WNW,299,5.4,10.4,90,0.18,RA,,0.35,67.0,WeatherDisplay:10.37,2013-02-19 18:44:00,
2013-02-19 10:49:00,44.7,41.9,29.81,WNW,283,2.0,3.5,90,0.13,RA,,0.35,83.0,WeatherDisplay:10.37,2013-02-19 18:49:00,
2013-02-19 10:54:00,44.7,41.9,29.81,WNW,298,2.7,3.5,90,0.12,BKN,,0.35,139.0,WeatherDisplay:10.37,2013-02-19 18:54:00,
2013-02-19 10:59:00,44.8,42.0,29.82,West,280,4.5,5.8,90,0.11,BKN,,0.35,243.0,WeatherDisplay:10.37,2013-02-19 18:59:00,
2013-02-19 11:04:00,45.0,42.5,29.81,West,267,3.9,6.9,91,0.09,SCT,,0.35,413.0,WeatherDisplay:10.37,2013-02-19 19:04:00,
2013-02-19 11:09:00,45.3,42.5,29.81,WNW,285,5.8,10.4,90,0.08,SCT,,0.35,318.0,WeatherDisplay:10.37,2013-02-19 19:09:00,
2013-02-19 11:14:00,45.5,42.4,29.81,West,271,6.9,11.5,89,0.07,SCT,,0.35,271.0,WeatherDisplay:10.37,2013-02-19 19:14:00,
2013-02-19 11:19:00,45.7,42.3,29.81,WSW,253,5.0,10.4,88,0.06,SCT,,0.35,221.0,WeatherDisplay:10.37,2013-02-19 19:19:00,
2013-02-19 11:24:00,45.8,42.4,29.81,WNW,291,2.4,4.6,88,0.05,BKN,,0.35,190.0,WeatherDisplay:10.37,2013-02-19 19:24:00,
2013-02-19 11:29:00,46.0,42.6,29.81,NW,306,5.1,6.9,88,0.04,BKN,,0.35,144.0,WeatherDisplay:10.37,2013-02-19 19:29:00,
2013-02-19 11:34:00,46.1,42.4,29.81,West,267,4.2,6.9,87,0.03,BKN,,0.35,123.0,WeatherDisplay:10.37,2013-02-19 19:34:00,
2013-02-19 11:39:00,46.1,42.1,29.80,WNW,283,5.4,10.4,86,0.01,BKN,,0.35,197.0,WeatherDisplay:10.37,2013-02-19 19:39:00,
2013-02-19 11:45:00,46.1,41.8,29.80,WNW,298,0.0,3.5,85,0.00,BKN,,0.35,248.0,WeatherDisplay:10.37,2013-02-19 19:45:00,
2013-02-19 11:50:00,46.4,42.4,29.80,West,277,3.0,4.6,86,0.00,BKN,,0.35,153.0,WeatherDisplay:10.37,2013-02-19 19:50:00,
2013-02-19 11:55:00,46.6,42.6,29.81,West,273,6.4,13.0,86,0.01,RA,,0.36,76.0,WeatherDisplay:10.37,2013-02-19 19:55:00,
2013-02-19 12:00:00,45.8,41.2,29.81,West,275,10.2,12.7,84,0.01,RA,,0.37,183.0,WeatherDisplay:10.37,2013-02-19 20:00:00,
2013-02-19 12:05:00,45.1,40.9,29.80,West,260,10.1,15.0,85,0.02,RA,,0.37,181.0,WeatherDisplay:10.37,2013-02-19 20:05:00,
2013-02-19 12:10:00,44.8,40.3,29.80,NW,304,10.0,13.8,84,0.02,RA,,0.37,185.0,WeatherDisplay:10.37,2013-02-19 20:10:00,
2013-02-19 12:15:00,44.8,40.6,29.80,West,281,7.3,11.5,85,0.02,BKN,,0.37,204.0,WeatherDisplay:10.37,2013-02-19 20:15:00,
2013-02-19 12:20:00,44.9,40.7,29.80,North,352,6.1,10.4,85,0.03,RA,,0.38,207.0,WeatherDisplay:10.37,2013-02-19 20:20:00,
2013-02-19 12:25:00,45.0,40.8,29.81,WSW,252,7.1,10.0,85,0.03,RA,,0.38,165.0,WeatherDisplay:10.37,2013-02-19 20:25:00,
2013-02-19 12:30:00,45.0,40.8,29.81,SW,231,5.3,6.9,85,0.03,BKN,,0.38,146.0,WeatherDisplay:10.37,2013-02-19 20:30:00,
2013-02-19 12:35:00,44.9,40.4,29.81,West,279,10.8,11.5,84,0.03,BKN,,0.38,162.0,WeatherDisplay:10.37,2013-02-19 20:35:00,
2013-02-19 12:40:00,44.8,40.3,29.80,West,265,6.2,12.7,84,0.03,BKN,,0.38,67.0,WeatherDisplay:10.37,2013-02-19 20:40:00,
2013-02-19 12:45:00,44.6,40.4,29.80,WNW,297,5.6,6.9,85,0.04,RA,,0.39,47.0,WeatherDisplay:10.37,2013-02-19 20:45:00,
2013-02-19 12:50:00,44.2,39.7,29.81,WNW,285,9.7,15.0,84,0.05,RA,,0.40,54.0,WeatherDisplay:10.37,2013-02-19 20:50:00,
2013-02-19 12:55:00,43.7,39.8,29.81,North,10,6.0,10.4,86,0.05,RA,,0.41,53.0,WeatherDisplay:10.37,2013-02-19 20:55:00,
2013-02-19 13:00:00,43.4,39.8,29.80,North,10,7.3,11.5,87,0.06,RA,,0.42,69.0,WeatherDisplay:10.37,2013-02-19 21:00:00,
2013-02-19 13:05:00,42.9,39.0,29.80,WSW,254,1.5,3.5,86,0.06,RA,,0.43,93.0,WeatherDisplay:10.37,2013-02-19 21:05:00,
2013-02-19 13:10:00,42.8,39.2,29.78,WNW,291,2.6,5.8,87,0.06,RA,,0.43,153.0,WeatherDisplay:10.37,2013-02-19 21:10:00,
2013-02-19 13:15:00,42.7,39.1,29.78,West,276,6.6,8.1,87,0.06,BKN,,0.43,265.0,WeatherDisplay:10.37,2013-02-19 21:15:00,
2013-02-19 13:20:00,43.1,39.5,29.78,WSW,257,4.1,9.0,87,0.05,BKN,,0.43,694.0,WeatherDisplay:10.37,2013-02-19 21:20:00,
2013-02-19 13:25:00,43.6,39.7,29.78,West,281,6.3,9.2,86,0.05,FEW,,0.43,647.0,WeatherDisplay:10.37,2013-02-19 21:25:00,
2013-02-19 13:30:00,44.2,40.6,29.78,WNW,286,4.7,5.8,87,0.05,CLR,,0.43,626.0,WeatherDisplay:10.37,2013-02-19 21:30:00,
2013-02-19 13:35:00,44.9,40.7,29.78,West,264,7.1,10.4,85,0.05,CLR,,0.43,636.0,WeatherDisplay:10.37,2013-02-19 21:35:00,
2013-02-19 13:40:00,45.5,41.3,29.78,West,277,10.3,14.0,85,0.05,CLR,,0.43,594.0,WeatherDisplay:10.37,2013-02-19 21:40:00,
2013-02-19 13:45:00,46.0,41.1,29.78,WNW,283,7.3,11.5,83,0.04,CLR,,0.43,670.0,WeatherDisplay:10.37,2013-02-19 21:45:00,
2013-02-19 13:50:00,46.4,40.9,29.78,North,10,7.2,11.5,81,0.03,CLR,,0.43,394.0,WeatherDisplay:10.37,2013-02-19 21:50:00,
2013-02-19 13:55:00,46.1,40.3,29.78,WSW,245,6.4,11.5,80,0.02,SCT,,0.43,309.0,WeatherDisplay:10.37,2013-02-19 21:55:00,
2013-02-19 14:00:00,46.0,39.5,29.77,West,275,9.0,15.0,78,0.00,SCT,,0.43,251.0,WeatherDisplay:10.37,2013-02-19 22:00:00,
2013-02-19 14:05:00,46.0,39.2,29.77,West,263,6.6,10.4,77,0.00,BKN,,0.43,200.0,WeatherDisplay:10.37,2013-02-19 22:05:00,
2013-02-19 14:10:00,46.0,39.2,29.77,WNW,299,9.2,12.7,77,0.00,BKN,,0.43,214.0,WeatherDisplay:10.37,2013-02-19 22:10:00,
2013-02-19 14:15:00,46.0,39.5,29.77,WNW,292,8.0,12.0,78,0.00,SCT,,0.43,687.0,WeatherDisplay:10.37,2013-02-19 22:15:00,
2013-02-19 14:20:00,46.5,40.0,29.77,West,273,6.6,11.5,78,0.00,FEW,,0.43,577.0,WeatherDisplay:10.37,2013-02-19 22:20:00,
2013-02-19 14:25:00,46.9,40.1,29.77,WNW,302,5.0,12.0,77,0.00,CLR,,0.43,592.0,WeatherDisplay:10.37,2013-02-19 22:25:00,
2013-02-19 14:30:00,47.4,39.2,29.76,WNW,290,15.1,15.1,73,0.00,CLR,,0.43,529.0,WeatherDisplay:10.37,2013-02-19 22:30:00,
2013-02-19 14:35:00,47.8,39.2,29.76,WNW,289,8.0,17.0,72,0.00,CLR,,0.43,575.0,WeatherDisplay:10.37,2013-02-19 22:35:00,
2013-02-19 14:40:00,48.1,38.4,29.76,NW,314,6.3,17.3,69,0.00,SCT,,0.43,229.0,WeatherDisplay:10.37,2013-02-19 22:40:00,
2013-02-19 14:45:00,48.1,37.3,29.76,NW,309,8.9,16.1,66,0.00,SCT,,0.43,186.0,WeatherDisplay:10.37,2013-02-19 22:45:00,
2013-02-19 14:50:00,48.1,37.3,29.76,WNW,283,8.0,15.0,66,0.00,SCT,,0.43,345.0,WeatherDisplay:10.37,2013-02-19 22:50:00,
2013-02-19 14:55:00,48.2,37.4,29.76,WNW,296,7.0,16.0,66,0.00,BKN,,0.43,149.0,WeatherDisplay:10.37,2013-02-19 22:55:00,
2013-02-19 15:00:00,48.0,37.2,29.76,WNW,288,12.0,17.0,66,0.00,BKN,,0.43,524.0,WeatherDisplay:10.37,2013-02-19 23:00:00,
2013-02-19 15:05:00,48.0,36.0,29.76,North,10,9.8,16.1,63,0.00,SCT,,0.43,130.0,WeatherDisplay:10.37,2013-02-19 23:05:00,
2013-02-19 15:10:00,47.7,35.7,29.76,West,272,9.0,11.5,63,0.00,SCT,,0.43,93.0,WeatherDisplay:10.37,2013-02-19 23:10:00,
2013-02-19 15:15:00,47.7,35.7,29.76,WNW,297,10.0,21.0,63,0.00,SCT,,0.43,422.0,WeatherDisplay:10.37,2013-02-19 23:15:00,
2013-02-19 15:20:00,47.7,36.1,29.76,WNW,290,13.7,18.4,64,0.00,FEW,,0.43,397.0,WeatherDisplay:10.37,2013-02-19 23:20:00,
2013-02-19 15:25:00,47.7,36.1,29.76,NW,324,13.0,21.0,64,0.00,FEW,,0.43,387.0,WeatherDisplay:10.37,2013-02-19 23:25:00,
2013-02-19 15:30:00,47.8,36.6,29.76,WNW,296,14.4,26.5,65,0.00,FEW,,0.43,373.0,WeatherDisplay:10.37,2013-02-19 23:30:00,
2013-02-19 15:35:00,47.8,36.2,29.76,WNW,288,14.0,20.0,64,0.00,SCT,,0.43,90.0,WeatherDisplay:10.37,2013-02-19 23:35:00,
2013-02-19 15:40:00,47.6,37.2,29.76,WNW,287,7.5,12.7,67,0.00,SCT,,0.43,390.0,WeatherDisplay:10.37,2013-02-19 23:40:00,
2013-02-19 15:45:00,47.7,36.1,29.75,West,276,7.5,17.3,64,0.00,SCT,,0.43,260.0,WeatherDisplay:10.37,2013-02-19 23:45:00,
2013-02-19 15:50:00,48.0,36.8,29.76,West,274,9.3,17.0,65,0.00,SCT,,0.43,313.0,WeatherDisplay:10.37,2013-02-19 23:50:00,
2013-02-19 15:55:00,48.0,36.4,29.76,WNW,291,10.0,17.0,64,0.00,SCT,,0.43,95.0,WeatherDisplay:10.37,2013-02-19 23:55:00,
2013-02-19 16:00:00,47.7,36.9,29.75,WNW,285,9.5,15.0,66,0.00,BKN,,0.43,132.0,WeatherDisplay:10.37,2013-02-20 00:00:00,
2013-02-19 16:05:00,47.6,37.2,29.76,NW,304,7.0,16.0,67,0.00,SCT,,0.43,341.0,WeatherDisplay:10.37,2013-02-20 00:05:00,
2013-02-19 16:10:00,47.3,37.3,29.76,WNW,292,4.0,8.0,68,0.00,SCT,,0.43,95.0,WeatherDisplay:10.37,2013-02-20 00:10:00,
2013-02-19 16:15:00,47.2,36.4,29.75,West,278,12.3,13.8,66,0.00,SCT,,0.43,250.0,WeatherDisplay:10.37,2013-02-20 00:15:00,
2013-02-19 16:20:00,46.9,36.5,29.75,North,10,4.4,9.2,67,0.00,SCT,,0.43,248.0,WeatherDisplay:10.37,2013-02-20 00:20:00,
2013-02-19 16:25:00,47.1,36.7,29.75,North,10,6.1,17.3,67,0.00,SCT,,0.43,200.0,WeatherDisplay:10.37,2013-02-20 00:25:00,
2013-02-19 16:30:00,47.0,36.6,29.74,WNW,283,8.2,17.3,67,0.00,SCT,,0.43,220.0,WeatherDisplay:10.37,2013-02-20 00:30:00,
2013-02-19 16:35:00,47.2,36.8,29.74,WNW,295,7.0,18.0,67,0.00,SCT,,0.43,204.0,WeatherDisplay:10.37,2013-02-20 00:35:00,
2013-02-19 16:40:00,47.3,36.9,29.75,West,281,14.6,19.6,67,0.00,SCT,,0.43,54.0,WeatherDisplay:10.37,2013-02-20 00:40:00,
2013-02-19 16:45:00,47.1,37.1,29.75,WNW,295,13.0,18.0,68,0.00,BKN,,0.43,153.0,WeatherDisplay:10.37,2013-02-20 00:45:00,
2013-02-19 16:50:00,46.9,37.6,29.75,West,276,9.0,16.0,70,0.00,BKN,,0.43,35.0,WeatherDisplay:10.37,2013-02-20 00:50:00,
2013-02-19 16:55:00,46.6,37.0,29.75,West,277,11.7,12.7,69,0.00,BKN,,0.43,88.0,WeatherDisplay:10.37,2013-02-20 00:55:00,
2013-02-19 17:00:00,46.4,36.8,29.75,WNW,288,8.0,16.0,69,0.00,BKN,,0.43,118.0,WeatherDisplay:10.37,2013-02-20 01:00:00,
2013-02-19 17:05:00,46.5,37.6,29.75,WNW,291,6.6,9.2,71,0.00,BKN,,0.43,88.0,WeatherDisplay:10.37,2013-02-20 01:05:00,
2013-02-19 17:10:00,46.4,36.8,29.75,West,270,14.4,18.4,69,0.00,BKN,,0.43,33.0,WeatherDisplay:10.37,2013-02-20 01:10:00,
2013-02-19 17:15:00,46.2,36.6,29.75,WNW,283,9.8,13.0,69,0.00,BKN,,0.43,33.0,WeatherDisplay:10.37,2013-02-20 01:15:00,
2013-02-19 17:20:00,46.2,36.6,29.75,NW,314,10.4,15.0,69,0.00,BKN,,0.43,25.0,WeatherDisplay:10.37,2013-02-20 01:20:00,
2013-02-19 17:25:00,46.1,36.9,29.75,West,267,7.8,11.5,70,0.00,BKN,,0.43,23.0,WeatherDisplay:10.37,2013-02-20 01:25:00,
2013-02-19 17:30:00,46.1,36.9,29.75,West,274,3.0,6.9,70,0.00,BKN,,0.43,16.0,WeatherDisplay:10.37,2013-02-20 01:30:00,
2013-02-19 17:35:00,46.0,36.8,29.75,West,266,7.9,11.5,70,0.00,OVC,,0.43,14.0,WeatherDisplay:10.37,2013-02-20 01:35:00,
2013-02-19 17:40:00,45.8,35.8,29.75,NW,306,1.3,4.6,68,0.00,OVC,,0.43,11.0,WeatherDisplay:10.37,2013-02-20 01:40:00,
2013-02-19 17:45:00,45.8,35.8,29.75,NNW,327,2.3,5.8,68,0.00,OVC,,0.43,7.0,WeatherDisplay:10.37,2013-02-20 01:45:00,
2013-02-19 17:50:00,45.8,35.8,29.75,NW,320,6.0,13.8,68,0.00,OVC,,0.43,5.0,WeatherDisplay:10.37,2013-02-20 01:50:00,
2013-02-19 17:55:00,45.6,35.6,29.75,NW,320,9.9,13.8,68,0.00,OVC,,0.43,0.0,WeatherDisplay:10.37,2013-02-20 01:55:00,
2013-02-19 18:00:00,45.5,35.5,29.75,WSW,254,6.1,12.7,68,0.00,OVC,,0.43,0.0,WeatherDisplay:10.37,2013-02-20 02:00:00,
2013-02-19 18:05:00,45.4,35.5,29.75,WNW,282,9.4,12.7,68,0.00,OVC,,0.43,0.0,WeatherDisplay:10.37,2013-02-20 02:05:00,
2013-02-19 18:10:00,45.4,35.8,29.75,NW,325,2.9,6.9,69,0.00,OVC,,0.43,0.0,WeatherDisplay:10.37,2013-02-20 02:10:00,
2013-02-19 18:15:00,45.3,35.0,29.75,NNW,343,7.3,15.0,67,0.00,OVC,,0.43,0.0,WeatherDisplay:10.37,2013-02-20 02:15:00,
2013-02-19 18:20:00,45.2,34.9,29.75,West,271,3.7,6.9,67,0.00,OVC,,0.43,0.0,WeatherDisplay:10.37,2013-02-20 02:20:00,
2013-02-19 18:25:00,45.2,34.9,29.75,North,10,6.3,12.7,67,0.00,OVC,,0.43,0.0,WeatherDisplay:10.37,2013-02-20 02:25:00,
2013-02-19 18:30:00,45.1,35.2,29.75,NNW,345,9.3,18.4,68,0.00,OVC,,0.43,0.0,WeatherDisplay:10.37,2013-02-20 02:30:00,
2013-02-19 18:35:00,45.0,35.1,29.75,WNW,302,5.7,13.8,68,0.00,OVC,,0.43,0.0,WeatherDisplay:10.37,2013-02-20 02:35:00,
2013-02-19 18:40:00,45.0,35.4,29.76,NW,324,3.8,4.6,69,0.00,OVC,,0.43,0.0,WeatherDisplay:10.37,2013-02-20 02:40:00,
2013-02-19 18:45:00,44.9,35.7,29.76,West,270,5.4,11.5,70,0.00,OVC,,0.43,0.0,WeatherDisplay:10.37,2013-02-20 02:45:00,
2013-02-19 18:50:00,44.8,35.6,29.76,NNE,29,4.1,10.4,70,0.00,OVC,,0.43,0.0,WeatherDisplay:10.37,2013-02-20 02:50:00,
2013-02-19 18:55:00,44.7,35.9,29.76,WNW,291,10.2,17.3,71,0.00,OVC,,0.43,0.0,WeatherDisplay:10.37,2013-02-20 02:55:00,
2013-02-19 19:00:00,44.7,35.9,29.76,WNW,290,8.0,13.8,71,0.00,OVC,,0.43,0.0,WeatherDisplay:10.37,2013-02-20 03:00:00,
2013-02-19 19:05:00,44.6,35.8,29.76,WNW,282,5.0,12.0,71,0.00,OVC,,0.43,0.0,WeatherDisplay:10.37,2013-02-20 03:05:00,
2013-02-19 19:10:00,44.5,35.7,29.76,NNW,344,5.7,11.5,71,0.00,OVC,,0.43,0.0,WeatherDisplay:10.37,2013-02-20 03:10:00,
2013-02-19 19:15:00,44.4,35.6,29.76,WNW,291,4.9,9.2,71,0.00,OVC,,0.43,0.0,WeatherDisplay:10.37,2013-02-20 03:15:00,
2013-02-19 19:20:00,44.4,35.6,29.76,WNW,284,5.1,10.4,71,0.00,OVC,,0.43,0.0,WeatherDisplay:10.37,2013-02-20 03:20:00,
2013-02-19 19:25:00,44.4,35.9,29.76,NW,304,2.6,5.8,72,0.00,OVC,,0.43,0.0,WeatherDisplay:10.37,2013-02-20 03:25:00,
2013-02-19 19:30:00,44.4,35.9,29.76,North,10,5.0,11.5,72,0.00,OVC,,0.43,0.0,WeatherDisplay:10.37,2013-02-20 03:30:00,
2013-02-19 19:35:00,44.4,35.9,29.77,NW,326,0.4,5.8,72,0.00,OVC,,0.43,0.0,WeatherDisplay:10.37,2013-02-20 03:35:00,
2013-02-19 19:40:00,44.3,35.8,29.77,West,279,5.7,12.0,72,0.00,OVC,,0.43,0.0,WeatherDisplay:10.37,2013-02-20 03:40:00,
2013-02-19 19:45:00,44.4,35.9,29.76,West,274,2.9,9.2,72,0.00,OVC,,0.43,0.0,WeatherDisplay:10.37,2013-02-20 03:45:00,
2013-02-19 19:51:00,44.3,36.2,29.77,North,10,0.0,0.0,73,0.00,OVC,,0.43,0.0,WeatherDisplay:10.37,2013-02-20 03:51:00,
2013-02-19 19:56:00,44.3,36.2,29.76,NW,310,2.2,4.6,73,0.00,OVC,,0.43,0.0,WeatherDisplay:10.37,2013-02-20 03:56:00,
2013-02-19 20:01:00,44.2,36.1,29.76,NNW,343,4.2,10.4,73,0.00,OVC,,0.43,0.0,WeatherDisplay:10.37,2013-02-20 04:01:00,
2013-02-19 20:06:00,44.2,36.1,29.76,NW,305,2.1,4.6,73,0.00,OVC,,0.43,0.0,WeatherDisplay:10.37,2013-02-20 04:06:00,
2013-02-19 20:11:00,44.2,36.1,29.76,NNW,327,0.5,5.8,73,0.00,OVC,,0.43,0.0,WeatherDisplay:10.37,2013-02-20 04:11:00,
2013-02-19 20:16:00,44.2,35.7,29.77,WNW,297,1.0,3.5,72,0.00,OVC,,0.43,0.0,WeatherDisplay:10.37,2013-02-20 04:16:00,
2013-02-19 20:21:00,44.3,35.8,29.77,NW,310,1.4,3.5,72,0.00,OVC,,0.43,0.0,WeatherDisplay:10.37,2013-02-20 04:21:00,
2013-02-19 20:26:00,44.3,35.8,29.77,North,5,0.0,0.0,72,0.00,OVC,,0.43,0.0,WeatherDisplay:10.37,2013-02-20 04:26:00,
2013-02-19 20:31:00,44.2,35.4,29.77,West,280,3.2,6.9,71,0.00,OVC,,0.43,0.0,WeatherDisplay:10.37,2013-02-20 04:31:00,
2013-02-19 20:36:00,44.2,35.7,29.77,NW,317,2.1,4.6,72,0.00,OVC,,0.43,0.0,WeatherDisplay:10.37,2013-02-20 04:36:00,
2013-02-19 20:41:00,44.2,35.7,29.78,NW,326,1.6,5.8,72,0.00,OVC,,0.43,0.0,WeatherDisplay:10.37,2013-02-20 04:41:00,
2013-02-19 20:46:00,44.2,35.4,29.78,WNW,284,4.1,6.9,71,0.00,OVC,,0.43,0.0,WeatherDisplay:10.37,2013-02-20 04:46:00,
2013-02-19 20:51:00,44.3,35.5,29.78,NW,326,1.1,4.6,71,0.00,OVC,,0.43,0.0,WeatherDisplay:10.37,2013-02-20 04:51:00,
2013-02-19 20:56:00,44.2,35.4,29.78,North,354,1.8,3.5,71,0.00,OVC,,0.43,0.0,WeatherDisplay:10.37,2013-02-20 04:56:00,
2013-02-19 21:00:00,44.2,35.4,29.78,North,351,1.2,3.5,71,0.00,OVC,,0.43,0.0,WeatherDisplay:10.37,2013-02-20 05:00:00,
2013-02-19 21:05:00,44.2,35.4,29.80,NNW,342,1.2,3.5,71,0.00,OVC,,0.43,0.0,WeatherDisplay:10.37,2013-02-20 05:05:00,
2013-02-19 21:10:00,44.1,35.6,29.80,NW,325,1.3,3.5,72,0.00,OVC,,0.43,0.0,WeatherDisplay:10.37,2013-02-20 05:10:00,
2013-02-19 21:15:00,44.1,35.3,29.78,NNW,335,0.2,3.5,71,0.00,OVC,,0.43,0.0,WeatherDisplay:10.37,2013-02-20 05:15:00,
2013-02-19 21:20:00,44.1,35.3,29.78,NNW,348,2.6,5.8,71,0.00,OVC,,0.43,0.0,WeatherDisplay:10.37,2013-02-20 05:20:00,
2013-02-19 21:25:00,44.0,35.2,29.78,North,352,2.2,4.6,71,0.00,OVC,,0.43,0.0,WeatherDisplay:10.37,2013-02-20 05:25:00,
2013-02-19 21:30:00,44.0,35.2,29.79,NNW,335,3.4,4.6,71,0.00,OVC,,0.43,0.0,WeatherDisplay:10.37,2013-02-20 05:30:00,
2013-02-19 21:35:00,44.0,34.8,29.79,NNW,332,4.2,10.4,70,0.00,OVC,,0.43,0.0,WeatherDisplay:10.37,2013-02-20 05:35:00,
2013-02-19 21:40:00,44.1,34.6,29.80,NNW,328,3.2,4.6,69,0.00,OVC,,0.43,0.0,WeatherDisplay:10.37,2013-02-20 05:40:00,
2013-02-19 21:45:00,44.1,34.2,29.80,North,10,0.5,3.5,68,0.00,OVC,,0.43,0.0,WeatherDisplay:10.37,2013-02-20 05:45:00,
2013-02-19 21:50:00,44.0,34.1,29.80,NW,324,1.5,5.8,68,0.00,OVC,,0.43,0.0,WeatherDisplay:10.37,2013-02-20 05:50:00,
2013-02-19 21:55:00,44.0,34.1,29.80,North,356,3.0,6.9,68,0.00,OVC,,0.43,0.0,WeatherDisplay:10.37,2013-02-20 05:55:00,
2013-02-19 22:00:00,43.9,34.0,29.80,North,10,4.4,11.5,68,0.00,OVC,,0.43,0.0,WeatherDisplay:10.37,2013-02-20 06:00:00,
2013-02-19 22:05:00,43.9,34.0,29.80,NW,316,2.1,10.4,68,0.00,OVC,,0.43,0.0,WeatherDisplay:10.37,2013-02-20 06:05:00,
2013-02-19 22:10:00,43.8,33.9,29.80,NNW,343,0.1,4.6,68,0.00,OVC,,0.43,0.0,WeatherDisplay:10.37,2013-02-20 06:10:00,
2013-02-19 22:15:00,43.7,34.2,29.80,WNW,303,1.0,4.0,69,0.00,OVC,,0.43,0.0,WeatherDisplay:10.37,2013-02-20 06:15:00,
2013-02-19 22:20:00,43.7,34.2,29.80,NW,323,2.4,3.5,69,0.00,OVC,,0.43,0.0,WeatherDisplay:10.37,2013-02-20 06:20:00,
2013-02-19 22:25:00,43.6,34.1,29.80,NW,323,3.8,5.8,69,0.00,OVC,,0.43,0.0,WeatherDisplay:10.37,2013-02-20 06:25:00,
2013-02-19 22:30:00,43.6,34.1,29.80,NNW,333,6.2,11.5,69,0.00,OVC,,0.43,0.0,WeatherDisplay:10.37,2013-02-20 06:30:00,
2013-02-19 22:35:00,43.6,34.1,29.81,North,359,3.1,9.2,69,0.00,OVC,,0.43,0.0,WeatherDisplay:10.37,2013-02-20 06:35:00,
2013-02-19 22:41:00,43.6,33.7,29.81,NNW,335,4.6,9.2,68,0.00,OVC,,0.43,0.0,WeatherDisplay:10.37,2013-02-20 06:41:00,
2013-02-19 22:46:00,43.6,33.7,29.81,North,352,2.4,6.0,68,0.00,OVC,,0.43,0.0,WeatherDisplay:10.37,2013-02-20 06:46:00,
2013-02-19 22:51:00,43.6,33.7,29.81,North,10,2.3,4.6,68,0.00,OVC,,0.43,0.0,WeatherDisplay:10.37,2013-02-20 06:51:00,
2013-02-19 22:56:00,43.6,33.7,29.82,NNW,341,2.4,4.6,68,0.00,OVC,,0.43,0.0,WeatherDisplay:10.37,2013-02-20 06:56:00,
2013-02-19 23:01:00,43.6,33.7,29.82,NNW,347,2.9,4.0,68,0.00,OVC,,0.43,0.0,WeatherDisplay:10.37,2013-02-20 07:01:00,
2013-02-19 23:06:00,43.6,33.7,29.82,NNW,342,1.8,5.8,68,0.00,OVC,,0.43,0.0,WeatherDisplay:10.37,2013-02-20 07:06:00,
2013-02-19 23:11:00,43.6,33.7,29.82,WNW,290,0.3,5.0,68,0.00,OVC,,0.43,0.0,WeatherDisplay:10.37,2013-02-20 07:11:00,
2013-02-19 23:16:00,43.6,33.7,29.82,NNE,19,1.2,6.9,68,0.00,OVC,,0.43,0.0,WeatherDisplay:10.37,2013-02-20 07:16:00,
2013-02-19 23:21:00,43.5,33.6,29.82,NW,313,0.0,3.5,68,0.00,OVC,,0.43,0.0,WeatherDisplay:10.37,2013-02-20 07:21:00,
2013-02-19 23:26:00,43.5,33.6,29.83,NNW,345,0.7,2.0,68,0.00,OVC,,0.43,0.0,WeatherDisplay:10.37,2013-02-20 07:26:00,
2013-02-19 23:31:00,43.4,33.5,29.83,NNW,331,0.0,2.3,68,0.00,OVC,,0.43,0.0,WeatherDisplay:10.37,2013-02-20 07:31:00,
2013-02-19 23:36:00,43.4,33.5,29.83,NNW,348,2.0,3.5,68,0.00,OVC,,0.43,0.0,WeatherDisplay:10.37,2013-02-20 07:36:00,
2013-02-19 23:41:00,43.4,33.5,29.83,North,10,3.1,5.0,68,0.00,OVC,,0.43,0.0,WeatherDisplay:10.37,2013-02-20 07:41:00,
2013-02-19 23:46:00,43.4,33.5,29.83,NNW,340,4.3,5.8,68,0.00,OVC,,0.43,0.0,WeatherDisplay:10.37,2013-02-20 07:46:00,
2013-02-19 23:51:00,43.4,33.5,29.83,NNW,333,5.4,6.9,68,0.00,OVC,,0.43,0.0,WeatherDisplay:10.37,2013-02-20 07:51:00,
2013-02-19 23:56:00,43.4,33.5,29.83,North,360,2.9,4.6,68,0.00,OVC,,0.43,0.0,WeatherDisplay:10.37,2013-02-20 07:56:00,